Location: Clanezzo
(45.7500°N, 9.6000°E)
Time: 14:07:21
(UTC+00:00)

Cosmos 2369 Rocket - Pass Details

Date: 12 May 2021
Orbit: 827 x 854 km, 71.0° (Epoch: 19 June)

Event Time Altitude Azimuth Distance (km) Brightness Sun altitude
Exits shadow 22:01:51 43° 108° (ESE) 1,157 2.6 -23.6°
Maximum altitude 22:01:52 43° 108° (ESE) 1,157 2.6 -23.6°
Drops below altitude 10° 22:07:10 10° 38° (NE) 2,463 5.0 -23.9°
Sets 22:09:43 0° 32° (NNE) 3,406 5.9 -24.0°
